{"data":{"norad_id":68746,"intl_designator":"2026-082U","name":"STARLINK-37347","alt_names":[],"object_type":"PAYLOAD","status":"ACTIVE","operator":null,"country":"US","launch_date":"2026-04-15","launch_site_code":"AFWTR","launch_vehicle":null,"mission":null,"orbit_class":"UNKNOWN","rcs_meters":null,"size_class":null,"mass_kg":null,"dimensions":null,"purposes":["comms"],"wikipedia_slug":null,"has_3d_model":false,"image_url":null,"decayed_at":null,"tle_current":{"epoch":"2026-09-19T01:09:08.270496Z","epoch_age_seconds":166796,"freshness":"FRESH","line1":"1 68746U 26082U   26262.04801239  .00011777  00000+0  36657-3 0  9996","line2":"2 68746  97.2841 124.2293 0001816  91.5769 268.5682 15.33443542 24085","mean_motion":15.33443542,"eccentricity":0.0001816,"inclination_deg":97.2841,"raan_deg":124.2293,"arg_perigee_deg":91.5769,"mean_anomaly_deg":268.5682,"bstar":0.00036657,"rev_number":2408,"period_min":93.906293942969,"perigee_km":464.30469935631,"apogee_km":466.79032557124,"semimajor_km":6843.6845124638,"source":"CELESTRAK","updated_at":"2026-09-20T09:00:43.994842Z"}}}